STARLINK-1784, 46687

Orbit data source: Space-Track

STARLINK-1784, 46687 is a payload satellite owned by SpaceX/Seattle (US) in LEO that was launched on Sun, 18 Oct 2020 UTC via an FALCON 9 launch vehicle from the Air Force Eastern Test Range (AFETR). Payload-class satellites include a variety of spacecraft equipped with specific instruments for various scientific and technological missions. These include communications satellites like Starlink; space stations such as the ISS; scientific satellites like the Hubble; Earth observation satellites from companies like Planet Labs, Umbra, and HawkEye 360; GPS; miniature CubeSats for education and research; and military/defense satellites.

Loading next visibility...
Identifier
46687, 2020-073T
Orbit
LEO
Country
Flag of USUS
Related business
Manufacturer
SpaceX/Seattle
Mission
Partially operational Commercial Communications
Bus & Motor
STARLINK, Unknown motor
Mass
260 kg wet, ~248 kg dry
Launch date (UTC)
2020-10-18 (6 years ago)
Launch vehicle
FALCON 9
Launch site
Air Force Eastern Test Range (AFETR)
Object type
Payload
Rocket body
Debris
Shape & HBR
Box + 1 Pan, 10.1 m
Radar Cross Section
13.562 m², Large (>1 m²)

Expand to show TLE details & history
Last TLE update: 7 hours ago

TLE from 7 hours ago
0 STARLINK-1784
1 46687U 20073T   26119.20062763  .00105435  00000-0  77256-3 0  9996
2 46687  53.0397 297.9113 0001438 127.9043 232.2104 15.72381262305823
Epoch: 2026-04-29T04:48Z
TLE epoch observation values (Epoch: 2026-04-29T04:48:54.227Z)
Latitude
-0.00006°
Longitude
8.52031°
Altitude
353.589 km
Speed
7.698 km/s
True Right ascension
19h 51m 38s
True Declination
0° 00' 00"
Sunlit
Object was in daylight at epoch
Visualization orbit readout
Latitude
Unknown
Longitude
Unknown
Altitude
Unknown
Speed
Unknown
Apparent Right ascension
Unknown
Apparent Declination
Unknown
Sunlit
N/A
Visualization observer readout
Local Sidereal Time
19:04:22
Azimuth
Unknown
Elevation
Unknown
Doppler factor
Unknown
Orbital elements
Apogee altitude
353.342 km
Perigee altitude
351.406 km
Semi-major axis
6,730.511 km
Eccentricity
0.00014
Inclination
53.0397°
RAAN
297.9113°
Arg. of periapsis
127.9043°
True anomaly
232.19738°
Mean anomaly
232.2104°
Eccentric anomaly
232.20389°
Mean motion
3.93071 °/min
Orbital period
91.59 mins
BSTAR
0.00077256
Loading maneuver chart data...
Computing Atmospheric mass density...
Loading historical data...
Loading historical data...
Loading historical data...
Loading historical data...
Loading historical data...
Loading historical data...
Loading historical data...

Documentation

Showing up to 5 results
|